CW2014 Weather Reports


time (UTC)temp
C
wind
direction
speed
KPH
gust
KPH
rain 1hr
cm
rain 24hr
cm
rain mn
cm
humidity
%
barometer
mb
20260904022524 31 0 1.6 8.0 0.00 0.00 0.00 49 1007.1
20260904022027 31 0 1.6 9.7 0.00 0.00 0.00 50 1007.1
20260904021551 31 0 1.6 9.7 0.00 0.00 0.00 50 1007.1
20260904021030 31 0 4.8 16.1 0.00 0.00 0.00 50 1007.1
20260904020524 30 154 4.8 16.1 0.00 0.00 0.00 51 1007.0
20260904020058 30 190 6.4 16.1 0.00 0.00 0.00 52 1007.1
20260904015525 30 144 4.8 16.1 0.00 0.00 0.00 54 1007.2
20260904015024 30 172 4.8 19.3 0.00 0.00 0.00 54 1007.2
20260904014603 30 186 6.4 19.3 0.00 0.00 0.00 54 1007.2
20260904014023 30 216 9.7 27.4 0.00 0.00 0.00 54 1007.2
20260904013523 31 167 12.9 29.0 0.00 0.00 0.00 52 1007.1
20260904013053 31 187 11.3 32.2 0.00 0.00 0.00 51 1007.2
20260904012524 32 200 14.5 32.2 0.00 0.00 0.00 52 1007.1
20260904012023 33 211 8.0 27.4 0.00 0.00 0.00 43 1007.1
20260904011549 33 212 11.3 25.7 0.00 0.00 0.00 42 1007.2
20260904011025 34 167 11.3 25.7 0.00 0.00 0.00 40 1007.3
20260904010525 35 189 8.0 22.5 0.00 0.00 0.00 38 1007.1
20260904005528 36 110 1.6 6.4 0.00 0.00 0.00 34 1006.7
20260904005023 36 164 0.0 6.4 0.00 0.00 0.00 35 1006.8
20260904004551 36 125 1.6 11.3 0.00 0.00 0.00 34 1006.9
20260904004024 36 75 1.6 14.5 0.00 0.00 0.00 34 1007.0
20260904003525 36 123 3.2 16.1 0.00 0.00 0.00 34 1007.0
20260904003047 36 167 3.2 16.1 0.00 0.00 0.00 33 1006.9
20260904002530 36 136 1.6 12.9 0.00 0.00 0.00 34 1006.9
20260904002027 37 139 3.2 12.9 0.00 0.00 0.00 33 1006.9
20260904001547 37 139 3.2 12.9 0.00 0.00 0.00 33 1006.9
20260904001024 37 118 3.2 16.1 0.00 0.00 0.00 32 1006.9
20260904000529 37 180 4.8 16.1 0.00 0.00 0.00 32 1006.9
20260904000053 37 169 6.4 16.1 0.00 0.00 0.00 32 1006.9
20260903235524 37 137 4.8 16.1 0.00 0.00 0.00 32 1006.9
20260903235023 37 64 6.4 14.5 0.00 0.00 0.00 32 1006.9
20260903234550 37 78 3.2 11.3 0.00 0.00 0.00 32 1007.0
20260903234023 37 149 4.8 11.3 0.00 0.00 0.00 31 1007.0
20260903233523 37 184 3.2 14.5 0.00 0.00 0.00 32 1006.9
20260903233049 37 105 1.6 22.5 0.00 0.00 0.00 31 1007.0
20260903232523 37 188 8.0 22.5 0.00 0.00 0.00 31 1007.0
20260903232025 37 206 3.2 11.3 0.00 0.00 0.00 31 1007.0
20260903231546 37 227 3.2 11.3 0.00 0.00 0.00 31 1007.0
20260903231024 37 183 0.0 16.1 0.00 0.00 0.00 31 1007.0
20260903230524 37 280 3.2 16.1 0.00 0.00 0.00 31 1007.1
20260903230046 37 0 4.8 12.9 0.00 0.00 0.00 31 1007.3
20260903225524 38 71 1.6 8.0 0.00 0.00 0.00 30 1007.4
20260903225023 38 10 1.6 8.0 0.00 0.00 0.00 31 1007.4
20260903224549 38 241 1.6 9.7 0.00 0.00 0.00 31 1007.4
20260903224023 38 231 1.6 9.7 0.00 0.00 0.00 30 1007.6
20260903223524 38 113 1.6 9.7 0.00 0.00 0.00 30 1007.6
20260903223044 38 180 1.6 8.0 0.00 0.00 0.00 31 1007.5
20260903222528 38 132 0.0 6.4 0.00 0.00 0.00 30 1007.6
20260903222025 38 0 0.0 6.4 0.00 0.00 0.00 30 1007.7
20260903221547 38 0 1.6 9.7 0.00 0.00 0.00 30 1007.7
20260903221023 38 134 1.6 16.1 0.00 0.00 0.00 30 1007.7
20260903220523 38 192 6.4 16.1 0.00 0.00 0.00 30 1007.8
20260903220053 38 220 3.2 14.5 0.00 0.00 0.00 30 1007.9
20260903215525 38 304 3.2 14.5 0.00 0.00 0.00 30 1007.9
20260903215022 38 184 4.8 14.5 0.00 0.00 0.00 29 1008.0
20260903214545 38 265 3.2 11.3 0.00 0.00 0.00 30 1008.1
20260903214025 38 0 1.6 8.0 0.00 0.00 0.00 30 1008.2
20260903213526 38 13 0.0 14.5 0.00 0.00 0.00 30 1008.3
20260903213045 38 215 4.8 14.5 0.00 0.00 0.00 31 1008.4
20260903212524 38 145 4.8 14.5 0.00 0.00 0.00 31 1008.5
20260903212025 37 227 0.0 11.3 0.00 0.00 0.00 30 1008.7
20260903211545 38 237 3.2 11.3 0.00 0.00 0.00 29 1008.9
20260903211023 37 180 1.6 14.5 0.00 0.00 0.00 30 1008.8
20260903210523 37 76 3.2 14.5 0.00 0.00 0.00 32 1008.9
20260903210105 37 175 6.4 14.5 0.00 0.00 0.00 32 1009.0
20260903205525 37 0 4.8 17.7 0.00 0.00 0.00 31 1009.1
20260903205025 38 169 4.8 17.7 0.00 0.00 0.00 31 1009.2
20260903204604 38 202 3.2 14.5 0.00 0.00 0.00 30 1009.2
20260903204024 38 221 4.8 12.9 0.00 0.00 0.00 30 1009.3
20260903203524 38 218 1.6 14.5 0.00 0.00 0.00 30 1009.4
20260903203048 38 185 3.2 14.5 0.00 0.00 0.00 31 1009.5
20260903202523 37 155 3.2 12.9 0.00 0.00 0.00 32 1009.6
20260903202030 37 154 3.2 16.1 0.00 0.00 0.00 32 1009.6
20260903201546 37 265 1.6 19.3 0.00 0.00 0.00 33 1009.7
20260903201023 37 177 8.0 19.3 0.00 0.00 0.00 33 1009.9
20260903200524 37 246 3.2 12.9 0.00 0.00 0.00 33 1009.8
20260903200058 37 239 3.2 14.5 0.00 0.00 0.00 34 1010.0
20260903195523 36 205 4.8 14.5 0.00 0.00 0.00 34 1010.1
20260903195023 36 0 3.2 19.3 0.00 0.00 0.00 34 1010.0
20260903194552 36 64 4.8 19.3 0.00 0.00 0.00 33 1010.1
20260903194024 36 0 3.2 14.5 0.00 0.00 0.00 34 1010.0
20260903193526 36 219 4.8 14.5 0.00 0.00 0.00 35 1010.0
20260903193048 36 156 3.2 12.9 0.00 0.00 0.00 35 1010.2
20260903192525 36 247 1.6 12.9 0.00 0.00 0.00 35 1010.3
20260903192024 36 14 1.6 16.1 0.00 0.00 0.00 35 1010.4
20260903191545 36 0 4.8 16.1 0.00 0.00 0.00 33 1010.5
20260903191023 36 194 3.2 14.5 0.00 0.00 0.00 36 1010.6
20260903190524 35 211 3.2 12.9 0.00 0.00 0.00 36 1010.6
20260903190049 35 123 1.6 14.5 0.00 0.00 0.00 37 1010.8
20260903185524 35 166 3.2 16.1 0.00 0.00 0.00 35 1010.9
20260903185025 36 134 6.4 16.1 0.00 0.00 0.00 35 1011.0
20260903184547 36 170 3.2 16.1 0.00 0.00 0.00 36 1011.1
20260903184028 36 126 6.4 16.1 0.00 0.00 0.00 36 1011.2
20260903183524 36 172 3.2 11.3 0.00 0.00 0.00 38 1011.2
20260903183053 35 104 1.6 14.5 0.00 0.00 0.00 37 1011.4
20260903182523 35 193 3.2 14.5 0.00 0.00 0.00 38 1011.4
20260903182024 35 179 3.2 14.5 0.00 0.00 0.00 39 1011.6
20260903181548 35 0 3.2 14.5 0.00 0.00 0.00 40 1011.6
20260903181025 35 201 4.8 11.3 0.00 0.00 0.00 40 1011.7
20260903180524 35 0 3.2 11.3 0.00 0.00 0.00 40 1011.7
20260903180049 35 130 3.2 11.3 0.00 0.00 0.00 41 1011.8
20260903175524 35 0 1.6 12.9 0.00 0.00 0.00 41 1011.9
20260903175024 35 140 3.2 12.9 0.00 0.00 0.00 41 1011.8
20260903174546 35 188 1.6 14.5 0.00 0.00 0.00 42 1011.8
20260903174029 35 250 3.2 16.1 0.00 0.00 0.00 41 1011.8
20260903173527 35 166 3.2 16.1 0.00 0.00 0.00 42 1011.9
20260903173055 34 158 3.2 16.1 0.00 0.00 0.00 43 1012.0
20260903172523 34 88 1.6 11.3 0.00 0.00 0.00 43 1012.0
20260903172027 34 209 3.2 11.3 0.00 0.00 0.00 43 1011.9
20260903171555 34 167 3.2 12.9 0.00 0.00 0.00 43 1012.0
20260903171024 33 90 3.2 12.9 0.00 0.00 0.00 43 1012.0
20260903170526 33 157 4.8 12.9 0.00 0.00 0.00 44 1011.9
20260903170047 33 284 3.2 14.5 0.00 0.00 0.00 43 1012.0
20260903165524 33 194 4.8 14.5 0.00 0.00 0.00 44 1011.9
20260903165024 33 139 1.6 9.7 0.00 0.00 0.00 45 1011.9
20260903164552 33 76 1.6 11.3 0.00 0.00 0.00 44 1011.9
20260903164026 33 211 3.2 11.3 0.00 0.00 0.00 44 1011.9
20260903163529 33 187 1.6 9.7 0.00 0.00 0.00 44 1012.0
20260903163048 33 20 1.6 8.0 0.00 0.00 0.00 44 1011.9
20260903162526 33 215 1.6 12.9 0.00 0.00 0.00 44 1012.0
20260903162026 33 97 3.2 12.9 0.00 0.00 0.00 45 1011.9
20260903161546 33 167 4.8 11.3 0.00 0.00 0.00 45 1011.9
20260903161027 33 134 3.2 11.3 0.00 0.00 0.00 46 1011.9
20260903160526 32 180 4.8 14.5 0.00 0.00 0.00 46 1012.0
20260903160100 32 123 3.2 16.1 0.00 0.00 0.00 47 1012.0
20260903155525 32 141 4.8 16.1 0.00 0.00 0.00 47 1012.0
20260903155029 32 215 3.2 12.9 0.00 0.00 0.00 48 1011.9
20260903154546 32 192 3.2 12.9 0.00 0.00 0.00 49 1012.0
20260903154026 32 221 3.2 12.9 0.00 0.00 0.00 49 1012.0
20260903153525 31 0 4.8 12.9 0.00 0.00 0.00 49 1011.9
20260903153054 31 238 3.2 11.3 0.00 0.00 0.00 49 1012.0
20260903152528 31 219 3.2 11.3 0.00 0.00 0.00 49 1012.1
20260903152027 31 207 3.2 11.3 0.00 0.00 0.00 50 1012.0
20260903151547 31 209 3.2 11.3 0.00 0.00 0.00 51 1011.9
20260903151025 31 220 3.2 11.3 0.00 0.00 0.00 52 1012.0
20260903150526 31 202 1.6 8.0 0.00 0.00 0.00 53 1012.0
20260903150053 30 192 3.2 8.0 0.00 0.00 0.00 54 1012.0
20260903145525 30 184 3.2 11.3 0.00 0.00 0.00 54 1012.0
20260903145026 30 219 3.2 11.3 0.00 0.00 0.00 55 1011.9
20260903144554 30 169 4.8 9.7 0.00 0.00 0.00 56 1012.0
20260903144025 30 214 3.2 12.9 0.00 0.00 0.00 58 1012.0
20260903143524 30 201 3.2 12.9 0.00 0.00 0.00 59 1012.0
20260903143046 29 181 4.8 12.9 0.00 0.00 0.00 60 1012.0
20260903142525 28 198 3.2 11.3 0.00 0.00 0.00 61 1012.0
20260903142024 28 181 3.2 11.3 0.00 0.00 0.00 62 1011.9
20260903141548 28 174 3.2 11.3 0.00 0.00 0.00 63 1011.9
20260903141025 28 184 3.2 11.3 0.00 0.00 0.00 64 1012.0
20260903140525 27 224 3.2 9.7 0.00 0.00 0.00 65 1011.9
20260903140048 27 178 1.6 8.0 0.00 0.00 0.00 67 1011.8
20260903135526 27 164 3.2 8.0 0.00 0.00 0.00 68 1011.7
20260903135026 27 173 1.6 8.0 0.00 0.00 0.00 68 1011.6
20260903134551 27 0 0.0 4.8 0.00 0.00 0.00 68 1011.5
20260903134024 27 173 1.6 6.4 0.00 0.00 0.00 68 1011.5
20260903133525 27 173 1.6 6.4 0.00 0.00 0.00 68 1011.5
20260903133059 27 173 3.2 6.4 0.00 0.00 0.00 68 1011.5
20260903132523 27 184 1.6 8.0 0.00 0.00 0.00 69 1011.4
20260903132024 27 155 1.6 8.0 0.00 0.00 0.00 69 1011.4
20260903131549 27 155 1.6 8.0 0.00 0.00 0.00 69 1011.2
20260903131026 27 155 1.6 8.0 0.00 0.00 0.00 69 1011.2
20260903130525 27 155 1.6 4.8 0.00 0.00 0.00 69 1011.1
20260903130046 27 155 1.6 6.4 0.00 0.00 0.00 69 1011.1
20260903125525 27 0 1.6 6.4 0.00 0.00 0.00 69 1011.2
20260903125026 27 163 1.6 6.4 0.00 0.00 0.00 69 1011.1
20260903124553 26 163 3.2 6.4 0.00 0.00 0.00 69 1011.1
20260903124023 26 150 3.2 6.4 0.00 0.00 0.00 69 1011.1
20260903123526 27 145 0.0 4.8 0.00 0.00 0.00 69 1011.1
20260903123050 27 0 0.0 3.2 0.00 0.00 0.00 68 1010.8
20260903122525 27 145 1.6 3.2 0.00 0.00 0.00 68 1010.8
20260903122027 27 145 0.0 3.2 0.00 0.00 0.00 68 1010.7
20260903121545 27 145 1.6 3.2 0.00 0.00 0.00 68 1010.7
20260903121025 27 145 0.0 3.2 0.00 0.00 0.00 67 1010.6
20260903120524 27 0 0.0 4.8 0.00 0.00 0.00 67 1010.7
20260903115525 27 145 1.6 4.8 0.00 0.00 0.00 66 1010.7
20260903115025 27 157 1.6 6.4 0.00 0.00 0.00 66 1010.6
20260903114546 27 0 0.0 8.0 0.00 0.00 0.00 66 1010.5
20260903114025 27 167 1.6 8.0 0.00 0.00 0.00 66 1010.4
20260903113526 27 128 0.0 6.4 0.00 0.00 0.00 65 1010.4
20260903113046 27 0 0.0 3.2 0.00 0.00 0.00 65 1010.4
20260903112526 27 159 0.0 3.2 0.00 0.00 0.00 64 1010.4
20260903112027 27 159 0.0 3.2 0.00 0.00 0.00 64 1010.4
20260903111547 27 159 0.0 6.4 0.00 0.00 0.00 63 1010.3
20260903111026 27 160 0.0 6.4 0.00 0.00 0.00 62 1010.2
20260903110527 28 0 1.6 6.4 0.00 0.00 0.00 61 1010.3
20260903110044 28 159 1.6 6.4 0.00 0.00 0.00 61 1010.2
20260903105524 28 169 1.6 6.4 0.00 0.00 0.00 60 1010.2
20260903105024 28 0 1.6 6.4 0.00 0.00 0.00 58 1010.3
20260903104550 28 143 0.0 4.8 0.00 0.00 0.00 57 1010.3
20260903104023 28 23 0.0 3.2 0.00 0.00 0.00 56 1010.2
20260903103528 28 0 0.0 6.4 0.00 0.00 0.00 55 1010.2
20260903103047 28 0 1.6 6.4 0.00 0.00 0.00 56 1010.3
20260903102526 28 351 1.6 6.4 0.00 0.00 0.00 55 1010.3
20260903102025 28 0 0.0 8.0 0.00 0.00 0.00 55 1010.3
20260903101547 28 84 0.0 8.0 0.00 0.00 0.00 55 1010.3
20260903101024 28 70 1.6 6.4 0.00 0.00 0.00 55 1010.3
20260903100526 29 58 1.6 6.4 0.00 0.00 0.00 54 1010.3
20260903100050 29 74 1.6 4.8 0.00 0.00 0.00 53 1010.3
20260903095524 29 0 0.0 6.4 0.00 0.00 0.00 52 1010.2
20260903095024 29 194 1.6 6.4 0.00 0.00 0.00 52 1010.3
20260903094552 29 198 0.0 4.8 0.00 0.00 0.00 51 1010.4
20260903094025 30 228 0.0 4.8 0.00 0.00 0.00 51 1010.3
20260903093525 30 227 1.6 4.8 0.00 0.00 0.00 51 1010.3
20260903093113 30 250 1.6 4.8 0.00 0.00 0.00 50 1010.3
20260903092524 30 233 0.0 4.8 0.00 0.00 0.00 50 1010.3
20260903092027 30 297 1.6 4.8 0.00 0.00 0.00 50 1010.4
20260903091546 30 247 0.0 4.8 0.00 0.00 0.00 49 1010.3
20260903091024 30 229 1.6 9.7 0.00 0.00 0.00 49 1010.2
20260903090523 30 0 0.0 9.7 0.00 0.00 0.00 48 1010.2
20260903090050 30 225 3.2 9.7 0.00 0.00 0.00 48 1010.2
20260903085523 30 226 1.6 9.7 0.00 0.00 0.00 48 1010.2
20260903085024 30 230 3.2 11.3 0.00 0.00 0.00 47 1010.1
20260903084546 30 212 3.2 11.3 0.00 0.00 0.00 47 1010.2
20260903084026 30 197 3.2 11.3 0.00 0.00 0.00 46 1010.1
20260903083525 31 277 3.2 11.3 0.00 0.00 0.00 46 1010.1
20260903083045 31 227 4.8 11.3 0.00 0.00 0.00 45 1010.1
20260903082524 31 257 3.2 12.9 0.00 0.00 0.00 45 1010.1
20260903082025 31 209 3.2 12.9 0.00 0.00 0.00 45 1010.1
20260903081553 31 248 3.2 12.9 0.00 0.00 0.00 45 1010.2
20260903081025 31 220 4.8 12.9 0.00 0.00 0.00 46 1010.1
20260903080525 31 223 3.2 11.3 0.00 0.00 0.00 47 1010.1
20260903080100 31 213 4.8 9.7 0.00 0.00 0.00 48 1010.1
20260903075525 31 204 3.2 9.7 0.00 0.00 0.00 48 1010.2
20260903075024 31 195 1.6 8.0 0.00 0.00 0.00 49 1010.1
20260903074600 31 228 3.2 8.0 0.00 0.00 0.00 49 1010.2
20260903074024 31 231 0.0 4.8 0.00 0.00 0.00 49 1010.1
20260903073525 31 302 0.0 6.4 0.00 0.00 0.00 49 1010.0
20260903073105 31 307 1.6 6.4 0.00 0.00 0.00 48 1010.1
20260903072524 31 311 1.6 8.0 0.00 0.00 0.00 48 1010.1
20260903072025 31 0 3.2 8.0 0.00 0.00 0.00 47 1010.2
20260903071549 31 309 1.6 11.3 0.00 0.00 0.00 47 1010.1
20260903071024 31 254 1.6 11.3 0.00 0.00 0.00 47 1010.0
20260903070526 32 244 3.2 11.3 0.00 0.00 0.00 46 1010.0
20260903070047 32 207 3.2 12.9 0.00 0.00 0.00 46 1010.1
20260903065526 32 256 3.2 12.9 0.00 0.00 0.00 46 1010.0
20260903065024 31 241 1.6 9.7 0.00 0.00 0.00 46 1010.0
20260903064546 32 201 1.6 6.4 0.00 0.00 0.00 46 1010.0
20260903064024 31 220 1.6 6.4 0.00 0.00 0.00 46 1010.0
20260903063524 32 241 1.6 6.4 0.00 0.00 0.00 46 1010.0
20260903063053 32 200 3.2 6.4 0.00 0.00 0.00 46 1010.0
20260903062523 32 219 1.6 6.4 0.00 0.00 0.00 45 1010.0
20260903062028 32 211 1.6 6.4 0.00 0.00 0.00 45 1010.0
20260903061555 32 240 0.0 6.4 0.00 0.00 0.00 45 1009.9
20260903061027 32 211 0.0 4.8 0.00 0.00 0.00 45 1009.9
20260903060524 32 234 0.0 6.4 0.00 0.00 0.00 45 1009.9
20260903060049 32 0 1.6 6.4 0.00 0.00 0.00 44 1009.8
20260903055525 32 231 1.6 6.4 0.00 0.00 0.00 44 1009.8
20260903055024 32 238 0.0 6.4 0.00 0.00 0.00 44 1009.8
20260903054548 32 254 1.6 6.4 0.00 0.00 0.00 44 1009.8
20260903054024 32 220 1.6 6.4 0.00 0.00 0.00 43 1009.8
20260903053525 32 251 1.6 6.4 0.00 0.00 0.00 43 1009.9
20260903053053 32 242 1.6 6.4 0.00 0.00 0.00 43 1009.8
20260903052528 32 184 1.6 4.8 0.00 0.00 0.00 42 1009.8
20260903052025 32 184 1.6 6.4 0.00 0.00 0.00 42 1009.9
20260903051550 32 184 1.6 6.4 0.00 0.00 0.00 42 1009.9
20260903051025 32 178 1.6 6.4 0.00 0.00 0.00 41 1009.9
20260903050525 32 178 1.6 6.4 0.00 0.00 0.00 41 1009.8
20260903050042 33 0 1.6 6.4 0.00 0.00 0.00 41 1009.8
20260903045524 33 179 1.6 6.4 0.00 0.00 0.00 41 1009.7
20260903045024 33 194 1.6 8.0 0.00 0.00 0.00 40 1009.9
20260903044555 33 0 1.6 8.0 0.00 0.00 0.00 40 1009.8
20260903044027 33 0 3.2 8.0 0.00 0.00 0.00 40 1009.8
20260903043528 33 0 1.6 6.4 0.00 0.00 0.00 39 1009.9
20260903043047 33 229 1.6 6.4 0.00 0.00 0.00 39 1009.7
20260903042527 33 0 1.6 4.8 0.00 0.00 0.00 39 1009.7
20260903042024 33 265 0.0 4.8 0.00 0.00 0.00 38 1009.7
20260903041546 33 299 1.6 4.8 0.00 0.00 0.00 38 1009.6
20260903041025 34 299 1.6 4.8 0.00 0.00 0.00 37 1009.6
20260903040524 34 294 1.6 4.8 0.00 0.00 0.00 37 1009.6
20260903040055 34 298 0.0 4.8 0.00 0.00 0.00 37 1009.6
20260903035524 34 0 1.6 4.8 0.00 0.00 0.00 36 1009.5
20260903035025 34 262 1.6 4.8 0.00 0.00 0.00 36 1009.5
20260903034551 34 266 1.6 4.8 0.00 0.00 0.00 36 1009.6
20260903034026 34 251 0.0 4.8 0.00 0.00 0.00 36 1009.5
20260903033526 35 277 0.0 4.8 0.00 0.00 0.00 36 1009.4
20260903033047 35 282 0.0 4.8 0.00 0.00 0.00 36 1009.4
20260903032529 35 0 1.6 4.8 0.00 0.00 0.00 35 1009.4
20260903032025 35 262 1.6 6.4 0.00 0.00 0.00 35 1009.3
20260903031603 35 261 1.6 6.4 0.00 0.00 0.00 35 1009.1
20260903031025 35 304 1.6 6.4 0.00 0.00 0.00 35 1009.2
20260903030524 35 302 1.6 6.4 0.00 0.00 0.00 35 1009.2
20260903030056 35 299 1.6 6.4 0.00 0.00 0.00 35 1009.1
20260903025524 35 274 1.6 11.3 0.00 0.00 0.00 35 1009.0
20260903025029 35 292 3.2 11.3 0.00 0.00 0.00 34 1008.9
20260903024554 35 303 1.6 8.0 0.00 0.00 0.00 34 1008.9
20260903024026 35 257 1.6 11.3 0.00 0.00 0.00 34 1009.0
20260903023527 35 299 3.2 11.3 0.00 0.00 0.00 34 1008.9
20260903023047 35 273 1.6 9.7 0.00 0.00 0.00 33 1008.9